Puyallup, WA
on Friday, December 28, 2012

Friday
Previous Day Next Day
Daily Summary
 ActualAverage (KSEA)Record (KSEA)
Temperature
Mean Temperature °F 40°F  
Max Temperature 46°F 45°F 56°F (1980)
Min Temperature 32°F 36°F 12°F (1990)
Degree Days
Heating Degree Days 26 25  
Month to date heating degree days 685  
Since 1 July heating degree days 1868  
Cooling Degree Days 0 0  
Month to date cooling degree days 0  
Year to date cooling degree days 189  
Moisture
Dew Point 36°F   
Average Humidity 94    
Maximum Humidity 100    
Minimum Humidity 66    
Precipitation
Precipitation 0.00 in 0.16 in 0.89 in (1965)
Month to date precipitation 4.87  
Year to date precipitation 37.01  
Snow
Snow 0.00 in in 2.80 in (1971)
Month to date snowfall  
Since 1 July snowfall  
Snow Depth in   
Wind
Wind Speed 0 mph   
Max Wind Speed 0 mph   
Max Gust Speed mph   
Visibility 10 miles   
Events     

Key: T is trace of precipitation, MM is missing value
Source: NWS Daily Summary
Time(PST)TemperatureDew PointHumidity Pressure Visibility Wind DirectionWind SpeedGust SpeedPrecipitationEvents Conditions
12:15 AM 33.8°F 33.8°F 100% 30.15 in 10.0 miles Calm Calm - N/A   Mostly Cloudy
12:35 AM 33.8°F 33.8°F 100% 30.15 in 10.0 miles Calm Calm - N/A   Scattered Clouds
12:55 AM 33.8°F 33.8°F 100% 30.15 in 10.0 miles Calm Calm - N/A   Mostly Cloudy
1:15 AM 35.6°F 35.6°F 100% 30.15 in 10.0 miles Calm Calm - N/A   Overcast
1:35 AM 35.6°F 35.6°F 100% 30.15 in 10.0 miles Calm Calm - N/A   Mostly Cloudy
1:55 AM 35.6°F 35.6°F 100% 30.15 in 10.0 miles Calm Calm - N/A   Overcast
2:15 AM 35.6°F 35.6°F 100% 30.15 in 10.0 miles Calm Calm - N/A   Overcast
2:35 AM 35.6°F 35.6°F 100% 30.15 in 10.0 miles Calm Calm - N/A   Mostly Cloudy
2:55 AM 35.6°F 35.6°F 100% 30.15 in 10.0 miles Calm Calm - N/A   Partly Cloudy
3:15 AM 35.6°F 35.6°F 100% 30.15 in 10.0 miles Calm Calm - N/A   Clear
3:35 AM 35.6°F 35.6°F 100% 30.14 in 10.0 miles Calm Calm - N/A   Clear
3:55 AM 35.6°F 35.6°F 100% 30.14 in 10.0 miles Calm Calm - N/A   Clear
4:15 AM 35.6°F 35.6°F 100% 30.13 in 10.0 miles Calm Calm - N/A   Clear
4:35 AM 35.6°F 35.6°F 100% 30.13 in 10.0 miles Calm Calm - N/A   Clear
4:55 AM 35.6°F 35.6°F 100% 30.13 in 10.0 miles Calm Calm - N/A   Clear
5:15 AM 35.6°F 35.6°F 100% 30.12 in 10.0 miles Calm Calm - N/A   Clear
5:35 AM 33.8°F 33.8°F 100% 30.12 in 10.0 miles Calm Calm - N/A   Clear
5:55 AM 32.0°F 32.0°F 100% 30.12 in 10.0 miles Calm Calm - N/A   Clear
6:15 AM 33.8°F 33.8°F 100% 30.12 in 10.0 miles Calm Calm - N/A   Clear
6:35 AM 33.8°F 33.8°F 100% 30.12 in 10.0 miles Calm Calm - N/A   Clear
6:55 AM 32.0°F 32.0°F 100% 30.11 in 10.0 miles Calm Calm - N/A   Clear
7:15 AM 33.8°F 33.8°F 100% 30.11 in 10.0 miles Calm Calm - N/A   Clear
7:35 AM 33.8°F 33.8°F 100% 30.11 in 10.0 miles Calm Calm - N/A   Clear
7:55 AM 33.8°F 33.8°F 100% 30.10 in 10.0 miles Calm Calm - N/A   Clear
8:15 AM 33.8°F 33.8°F 100% 30.11 in 10.0 miles Calm Calm - N/A   Clear
8:35 AM 33.8°F 33.8°F 100% 30.11 in 10.0 miles Calm Calm - N/A   Clear
8:55 AM 35.6°F 35.6°F 100% 30.11 in 10.0 miles Calm Calm - N/A   Clear
9:15 AM 35.6°F 35.6°F 100% 30.12 in 10.0 miles Calm Calm - N/A   Clear
9:35 AM 37.4°F 37.4°F 100% 30.12 in 10.0 miles Calm Calm - N/A   Clear
9:55 AM 39.2°F 37.4°F 93% 30.12 in 10.0 miles Calm Calm - N/A   Clear
10:15 AM 41.0°F 37.4°F 87% 30.12 in 10.0 miles Calm Calm - N/A   Clear
10:35 AM 41.0°F 37.4°F 87% 30.12 in 10.0 miles Calm Calm - N/A   Clear
10:55 AM 41.0°F 37.4°F 87% 30.12 in 10.0 miles Calm Calm - N/A   Clear
11:15 AM 42.8°F 37.4°F 81% 30.12 in 10.0 miles Calm Calm - N/A   Clear
11:35 AM 42.8°F 37.4°F 81% 30.12 in 10.0 miles Calm Calm - N/A   Clear
11:55 AM 44.6°F 37.4°F 76% 30.11 in 10.0 miles Calm Calm - N/A   Clear
12:15 PM 44.6°F 37.4°F 76% 30.11 in 10.0 miles Calm Calm - N/A   Clear
12:35 PM 44.6°F 37.4°F 76% 30.11 in 10.0 miles Calm Calm - N/A   Clear
12:55 PM 44.6°F 37.4°F 76% 30.10 in 10.0 miles Calm Calm - N/A   Clear
1:15 PM 46.4°F 35.6°F 66% 30.10 in 10.0 miles Calm Calm - N/A   Clear
1:35 PM 46.4°F 35.6°F 66% 30.10 in 10.0 miles Calm Calm - N/A   Clear
1:55 PM 46.4°F 35.6°F 66% 30.10 in 10.0 miles Calm Calm - N/A   Clear
2:35 PM 46.4°F 37.4°F 71% 30.10 in 10.0 miles Calm Calm - N/A   Clear
2:55 PM 46.4°F 37.4°F 71% 30.10 in 10.0 miles Calm Calm - N/A   Clear
3:15 PM 44.6°F 37.4°F 76% 30.11 in 10.0 miles Calm Calm - N/A   Clear
3:55 PM 44.6°F 39.2°F 81% 30.11 in 10.0 miles Calm Calm - N/A   Clear
4:15 PM 42.8°F 39.2°F 87% 30.11 in 10.0 miles Calm Calm - N/A   Clear
4:35 PM 41.0°F 37.4°F 87% 30.11 in 10.0 miles Calm Calm - N/A   Clear
4:55 PM 39.2°F 37.4°F 93% 30.11 in 10.0 miles Calm Calm - N/A   Clear
5:15 PM 39.2°F 37.4°F 93% 30.11 in 10.0 miles Calm Calm - N/A   Clear
5:35 PM 39.2°F 37.4°F 93% 30.11 in 10.0 miles Calm Calm - N/A   Clear
5:55 PM 39.2°F 37.4°F 93% 30.12 in 10.0 miles Calm Calm - N/A   Clear
6:15 PM 39.2°F 37.4°F 93% 30.12 in 10.0 miles Calm Calm - N/A   Partly Cloudy
6:35 PM 39.2°F 39.2°F 100% 30.12 in 10.0 miles Calm Calm - N/A   Clear
6:55 PM 39.2°F 37.4°F 93% 30.13 in 10.0 miles Calm Calm - N/A   Clear
7:15 PM 39.2°F 39.2°F 100% 30.13 in 10.0 miles Calm Calm - N/A   Clear
7:35 PM 39.2°F 39.2°F 100% 30.13 in 10.0 miles Calm Calm - N/A   Clear
7:55 PM 39.2°F 39.2°F 100% 30.13 in 10.0 miles Calm Calm - N/A   Clear
8:15 PM 39.2°F 39.2°F 100% 30.13 in 10.0 miles Calm Calm - N/A   Clear
8:35 PM 39.2°F 39.2°F 100% 30.13 in 10.0 miles Calm Calm - N/A   Clear
8:55 PM 37.4°F 37.4°F 100% 30.13 in 10.0 miles Calm Calm - N/A   Scattered Clouds
9:15 PM 37.4°F 37.4°F 100% 30.14 in 10.0 miles Calm Calm - N/A   Mostly Cloudy
9:35 PM 37.4°F 37.4°F 100% 30.14 in 10.0 miles Calm Calm - N/A   Mostly Cloudy
9:55 PM 37.4°F 37.4°F 100% 30.14 in 10.0 miles Calm Calm - N/A   Mostly Cloudy
10:15 PM 35.6°F 35.6°F 100% 30.15 in 10.0 miles Calm Calm - N/A   Scattered Clouds
10:35 PM 37.4°F 37.4°F 100% 30.15 in 10.0 miles Calm Calm - N/A   Clear
10:55 PM 37.4°F 37.4°F 100% 30.15 in 10.0 miles Calm Calm - N/A   Partly Cloudy
11:15 PM 35.6°F 35.6°F 100% 30.15 in 9.0 miles Calm Calm - N/A   Clear
11:35 PM 35.6°F 35.6°F 100% 30.15 in 9.0 miles Calm Calm - N/A   Clear
11:55 PM 33.8°F 33.8°F 100% 30.15 in 2.0 miles Calm Calm - N/A   Clear
Moon Phase
Dec. 28 Jan. 04 Jan. 11 Jan. 18 Jan. 26
Sunrise:07:55 AM (PST) Moon Rise:05:13 PM (PST)12/28
Sunset:04:27 PM (PST) Moon Set:07:49 AM (PST)12/28

Copyright © 2014 The Weather Underground, Inc.